McAlester, OK

12:41 AM CST on November 13, 2019 (GMT -0600)
McAlester Regional

Weather History for KMLC - August, 2019

Change the Weather History Date:

Saturday, August 31, 2019

  Actual Average Record
Temperature  
Mean Temperature 76 °F -  
Max Temperature 88 °F 88 °F 107 °F (2000)
Min Temperature 66 °F 68 °F 55 °F (1967)
Cooling Degree Days 12    
Growing Degree Days 26 (Base 50)    
Moisture  
Dew Point 69 °F    
Average Humidity 86    
Maximum Humidity 97    
Minimum Humidity 61    
Precipitation  
Precipitation 0.00 in - - ()
Sea Level Pressure  
Sea Level Pressure 30.08 in    
Wind  
Wind Speed 2 mph (NNE)    
Max Wind Speed 9 mph    
Max Gust Speed -    
Visibility 7 miles    
Events Fog , Rain    
Averages and records for this station are not official NWS values.
T = Trace of Precipitation, MM = Missing Value Source: NWS Daily Summary

Daily Weather History Graph

Daily Weather History Graph

Search for Another Location

Airport or City:

Astronomy

Aug. 31, 2019 Rise Set
Actual Time 6:55 AM CDT 7:51 PM CDT
Civil Twilight 6:29 AM CDT 8:17 PM CDT
Nautical Twilight 5:58 AM CDT 8:47 PM CDT
Astronomical Twilight 5:26 AM CDT 9:19 PM CDT
Moon 8:11 AM CDT (8/31) 9:07 PM CDT (8/31)
Length of Visible Light 13h 47m
Length of Day
12h 56m
New Moon, 3% of the Moon is Illuminated
Aug 31
New Moon
Sep 5
First Quarter
Sep 13
Full
Sep 21
Last Quarter
Sep 28
New

Hourly Weather History & Observations

Time (CDT) Temp. Heat Index Dew Point Humidity Pressure Visibility Wind Dir Wind Speed Gust Speed Precip Events Conditions
12:53 AM 69.1 °F - 66.9 °F 93% 30.09 in 10.0 mi Calm Calm - N/A   Clear
1:53 AM 68.0 °F - 66.0 °F 93% 30.08 in 8.0 mi Calm Calm - N/A   Partly Cloudy
2:53 AM 66.9 °F - 66.0 °F 97% 30.07 in 9.0 mi Calm Calm - N/A   Mostly Cloudy
4:53 AM 68.0 °F - 66.9 °F 96% 30.05 in 7.0 mi Calm Calm - N/A   Clear
5:12 AM 68.0 °F - 66.9 °F 96% 30.08 in 7.0 mi Calm Calm - N/A   Scattered Clouds
5:20 AM 68.0 °F - 66.9 °F 96% 30.08 in 2.5 mi Calm Calm - N/A   Mostly Cloudy
5:25 AM 69.1 °F - 66.9 °F 93% 30.08 in 1.2 mi North 3.5 mph - N/A   Mostly Cloudy
5:33 AM 68.0 °F - 66.9 °F 96% 30.09 in 2.0 mi North 3.5 mph - N/A   Overcast
5:40 AM 68.0 °F - 66.9 °F 96% 30.09 in 10.0 mi Calm Calm - N/A   Overcast
5:53 AM 68.0 °F - 66.0 °F 93% 30.07 in 10.0 mi NNE 3.5 mph - N/A   Scattered Clouds
6:19 AM 68.0 °F - 66.9 °F 96% 30.09 in 2.5 mi Calm Calm - N/A   Mostly Cloudy
6:22 AM 68.0 °F - 66.9 °F 96% 30.09 in 1.2 mi Calm Calm - N/A   Mostly Cloudy
6:30 AM 68.0 °F - 66.9 °F 96% 30.09 in 0.5 mi Calm Calm - N/A Fog Fog
6:53 AM 66.9 °F - 66.0 °F 97% 30.07 in 0.5 mi Calm Calm - N/A Fog Fog
7:12 AM 68.0 °F - 66.9 °F 96% 30.10 in 1.0 mi Calm Calm - N/A   Mist
7:15 AM 68.0 °F - 66.0 °F 93% 30.10 in 2.5 mi Calm Calm - N/A   Overcast
7:22 AM 68.0 °F - 66.9 °F 96% 30.10 in 4.0 mi Calm Calm - N/A   Mostly Cloudy
7:53 AM 69.1 °F - 66.9 °F 93% 30.09 in 4.0 mi Calm Calm - N/A   Overcast
8:07 AM 69.1 °F - 66.9 °F 93% 30.11 in 1.5 mi Calm Calm - N/A   Overcast
8:11 AM 69.1 °F - 66.9 °F 93% 30.11 in 0.8 mi North 3.5 mph - N/A   Overcast
8:25 AM 69.1 °F - 68.0 °F 96% 30.12 in 1.5 mi NNE 3.5 mph - N/A   Overcast
8:31 AM 69.1 °F - 68.0 °F 96% 30.12 in 3.0 mi NNE 4.6 mph - N/A   Overcast
8:53 AM 70.0 °F - 68.0 °F 93% 30.11 in 10.0 mi NNE 5.8 mph - N/A   Scattered Clouds
9:14 AM 72.0 °F - 69.1 °F 91% 30.13 in 10.0 mi North 6.9 mph - N/A   Mostly Cloudy
9:32 AM 72.0 °F - 69.1 °F 91% 30.13 in 10.0 mi NNE 4.6 mph - N/A   Overcast
9:46 AM 73.0 °F - 70.0 °F 90% 30.14 in 10.0 mi NNE 4.6 mph - N/A   Overcast
9:53 AM 73.9 °F - 70.0 °F 87% 30.11 in 10.0 mi North 5.8 mph - N/A   Overcast
10:53 AM 77.0 °F - 70.0 °F 79% 30.11 in 10.0 mi NNW 6.9 mph - N/A   Overcast
11:53 AM 75.0 °F - 70.0 °F 84% 30.11 in 10.0 mi North 6.9 mph - N/A   Overcast
12:09 PM 78.1 °F - 70.0 °F 76% 30.13 in 10.0 mi NNE 5.8 mph - N/A   Overcast
12:27 PM 79.0 °F - 71.1 °F 77% 30.12 in 10.0 mi Variable 3.5 mph - N/A   Scattered Clouds
12:53 PM 81.0 °F 84.9 °F 71.1 °F 72% 30.09 in 10.0 mi NNE 5.8 mph - N/A   Clear
1:53 PM 84.0 °F 89.0 °F 71.1 °F 65% 30.07 in 10.0 mi North 4.6 mph - N/A   Clear
2:53 PM 84.9 °F 89.4 °F 70.0 °F 61% 30.04 in 10.0 mi East 6.9 mph - N/A   Clear
3:53 PM 86.0 °F 92.2 °F 72.0 °F 63% 30.01 in 10.0 mi Variable 5.8 mph - N/A   Clear
4:53 PM 87.1 °F 93.6 °F 72.0 °F 61% 29.98 in 10.0 mi Variable 5.8 mph - N/A   Clear
5:53 PM 87.1 °F 93.6 °F 72.0 °F 61% 29.98 in 10.0 mi Variable 4.6 mph - N/A   Clear
6:53 PM 86.0 °F 92.2 °F 72.0 °F 63% 30.00 in 10.0 mi NNE 8.1 mph - N/A   Mostly Cloudy
7:53 PM 82.0 °F 86.7 °F 72.0 °F 71% 30.00 in 10.0 mi NE 3.5 mph - N/A   Clear
8:53 PM 79.0 °F - 73.0 °F 82% 30.01 in 10.0 mi North 4.6 mph - N/A   Partly Cloudy
9:53 PM 78.1 °F - 72.0 °F 81% 30.05 in 10.0 mi NNE 9.2 mph - 0.00 in Rain Light Rain
10:53 PM 75.9 °F - 70.0 °F 82% 30.07 in 10.0 mi NNE 5.8 mph - 0.00 in   Scattered Clouds
11:53 PM 75.0 °F - 70.0 °F 84% 30.06 in 10.0 mi Calm Calm - N/A   Clear